2018,02,23,00,00,00,138.2,,,,,,,,,,,,,,
2018,02,23,00,01,00,141.1,,,,,,,,,,,,,,
2018,02,23,00,02,00,147.0,,,,,,,,,,,,,,
2018,02,23,00,03,00,146.2,,,,,,,,,,,,,,
2018,02,23,00,04,00,148.2,,,,,,,,,,,,,,
2018,02,23,00,05,00,148.8,,,,,,,,,,,,,,
2018,02,23,00,06,00,157.7,,,,,,,,,,,,,,
2018,02,23,00,07,00,152.9,,,,,,,,,,,,,,
2018,02,23,00,08,00,150.2,,,,,,,,,,,,,,
2018,02,23,00,09,00,148.9,,,,,,,,,,,,,,
2018,02,23,00,10,00,158.1,,,,,,,,,,,,,,
2018,02,23,00,11,00,151.3,,,,,,,,,,,,,,
2018,02,23,00,12,00,144.0,,,,,,,,,,,,,,
2018,02,23,00,13,00,148.8,,,,,,,,,,,,,,
2018,02,23,00,14,00,154.0,,,,,,,,,,,,,,
2018,02,23,00,15,00,160.2,,,,,,,,,,,,,,
2018,02,23,00,16,00,167.6,,,,,,,,,,,,,,
2018,02,23,00,17,00,147.7,,,,,,,,,,,,,,
2018,02,23,00,18,00,148.6,,,,,,,,,,,,,,
2018,02,23,00,19,00,161.9,,,,,,,,,,,,,,
2018,02,23,00,20,00,158.9,,,,,,,,,,,,,,
2018,02,23,00,21,00,152.3,,,,,,,,,,,,,,
2018,02,23,00,22,00,178.9,,,,,,,,,,,,,,
2018,02,23,00,23,00,192.2,,,,,,,,,,,,,,
2018,02,23,00,24,00,206.7,,,,,,,,,,,,,,
2018,02,23,00,25,00,197.5,,,,,,,,,,,,,,
2018,02,23,00,26,00,187.1,,,,,,,,,,,,,,
2018,02,23,00,27,00,168.3,,,,,,,,,,,,,,
2018,02,23,00,28,00,173.7,,,,,,,,,,,,,,
2018,02,23,00,29,00,164.0,,,,,,,,,,,,,,
2018,02,23,00,30,00,166.7,,,,,,,,,,,,,,
2018,02,23,00,31,00,160.4,,,,,,,,,,,,,,
2018,02,23,00,32,00,153.6,,,,,,,,,,,,,,
2018,02,23,00,33,00,151.6,,,,,,,,,,,,,,
2018,02,23,00,34,00,147.3,,,,,,,,,,,,,,
2018,02,23,00,35,00,157.2,,,,,,,,,,,,,,
2018,02,23,00,36,00,157.1,,,,,,,,,,,,,,
2018,02,23,00,37,00,167.8,,,,,,,,,,,,,,
2018,02,23,00,38,00,167.3,,,,,,,,,,,,,,
2018,02,23,00,39,00,185.9,,,,,,,,,,,,,,
2018,02,23,00,40,00,176.6,,,,,,,,,,,,,,
2018,02,23,00,41,00,185.4,,,,,,,,,,,,,,
2018,02,23,00,42,00,203.7,,,,,,,,,,,,,,
2018,02,23,00,43,00,195.4,,,,,,,,,,,,,,
2018,02,23,00,44,00,171.8,,,,,,,,,,,,,,
2018,02,23,00,45,00,173.4,,,,,,,,,,,,,,
2018,02,23,00,46,00,172.6,,,,,,,,,,,,,,
2018,02,23,00,47,00,174.6,,,,,,,,,,,,,,
2018,02,23,00,48,00,162.9,,,,,,,,,,,,,,
2018,02,23,00,49,00,169.5,,,,,,,,,,,,,,
2018,02,23,00,50,00,151.7,,,,,,,,,,,,,,
2018,02,23,00,51,00,152.6,,,,,,,,,,,,,,
2018,02,23,00,52,00,154.3,,,,,,,,,,,,,,
2018,02,23,00,53,00,162.7,,,,,,,,,,,,,,
2018,02,23,00,54,00,153.9,,,,,,,,,,,,,,
2018,02,23,00,55,00,138.2,,,,,,,,,,,,,,
2018,02,23,00,56,00,154.1,,,,,,,,,,,,,,
2018,02,23,00,57,00,159.0,,,,,,,,,,,,,,
2018,02,23,00,58,00,176.9,,,,,,,,,,,,,,
2018,02,23,00,59,00,210.5,,,,,,,,,,,,,,
2018,02,23,01,00,00,199.7,,,,,,,,,,,,,,
2018,02,23,01,01,00,169.5,,,,,,,,,,,,,,
2018,02,23,01,02,00,145.1,,,,,,,,,,,,,,
2018,02,23,01,03,00,139.4,,,,,,,,,,,,,,
2018,02,23,01,04,00,133.3,,,,,,,,,,,,,,
2018,02,23,01,05,00,129.0,,,,,,,,,,,,,,
2018,02,23,01,06,00,134.6,,,,,,,,,,,,,,
2018,02,23,01,07,00,169.4,,,,,,,,,,,,,,
2018,02,23,01,08,00,175.5,,,,,,,,,,,,,,
2018,02,23,01,09,00,164.8,,,,,,,,,,,,,,
2018,02,23,01,10,00,168.0,,,,,,,,,,,,,,
2018,02,23,01,11,00,157.2,,,,,,,,,,,,,,
2018,02,23,01,12,00,146.9,,,,,,,,,,,,,,
2018,02,23,01,13,00,160.7,,,,,,,,,,,,,,
2018,02,23,01,14,00,172.2,,,,,,,,,,,,,,
2018,02,23,01,15,00,172.6,,,,,,,,,,,,,,
2018,02,23,01,16,00,188.8,,,,,,,,,,,,,,
2018,02,23,01,17,00,188.4,,,,,,,,,,,,,,
2018,02,23,01,18,00,188.9,,,,,,,,,,,,,,
2018,02,23,01,19,00,171.5,,,,,,,,,,,,,,
2018,02,23,01,20,00,179.7,,,,,,,,,,,,,,
2018,02,23,01,21,00,173.6,,,,,,,,,,,,,,
2018,02,23,01,22,00,174.0,,,,,,,,,,,,,,
2018,02,23,01,23,00,169.5,,,,,,,,,,,,,,
2018,02,23,01,24,00,168.1,,,,,,,,,,,,,,
2018,02,23,01,25,00,205.3,,,,,,,,,,,,,,
2018,02,23,01,26,00,201.6,,,,,,,,,,,,,,
2018,02,23,01,27,00,184.5,,,,,,,,,,,,,,
2018,02,23,01,28,00,175.5,,,,,,,,,,,,,,
2018,02,23,01,29,00,170.0,,,,,,,,,,,,,,
2018,02,23,01,30,00,188.2,,,,,,,,,,,,,,
2018,02,23,01,31,00,191.6,,,,,,,,,,,,,,
2018,02,23,01,32,00,201.3,,,,,,,,,,,,,,
2018,02,23,01,33,00,204.3,,,,,,,,,,,,,,
2018,02,23,01,34,00,186.8,,,,,,,,,,,,,,
2018,02,23,01,35,00,183.9,,,,,,,,,,,,,,
2018,02,23,01,36,00,195.3,,,,,,,,,,,,,,
2018,02,23,01,37,00,199.9,,,,,,,,,,,,,,
2018,02,23,01,38,00,197.8,,,,,,,,,,,,,,
2018,02,23,01,39,00,190.7,,,,,,,,,,,,,,
2018,02,23,01,40,00,190.4,,,,,,,,,,,,,,
2018,02,23,01,41,00,205.1,,,,,,,,,,,,,,
2018,02,23,01,42,00,192.4,,,,,,,,,,,,,,
2018,02,23,01,43,00,188.0,,,,,,,,,,,,,,
2018,02,23,01,44,00,195.9,,,,,,,,,,,,,,
2018,02,23,01,45,00,201.5,,,,,,,,,,,,,,
2018,02,23,01,46,00,207.9,,,,,,,,,,,,,,
2018,02,23,01,47,00,218.8,,,,,,,,,,,,,,
2018,02,23,01,48,00,208.4,,,,,,,,,,,,,,
2018,02,23,01,49,00,217.4,,,,,,,,,,,,,,
2018,02,23,01,50,00,217.2,,,,,,,,,,,,,,
2018,02,23,01,51,00,209.6,,,,,,,,,,,,,,
2018,02,23,01,52,00,202.2,,,,,,,,,,,,,,
2018,02,23,01,53,00,221.7,,,,,,,,,,,,,,
2018,02,23,01,54,00,254.0,,,,,,,,,,,,,,
2018,02,23,01,55,00,244.8,,,,,,,,,,,,,,
2018,02,23,01,56,00,217.0,,,,,,,,,,,,,,
2018,02,23,01,57,00,199.9,,,,,,,,,,,,,,
2018,02,23,01,58,00,210.3,,,,,,,,,,,,,,
2018,02,23,01,59,00,230.2,,,,,,,,,,,,,,
2018,02,23,02,00,00,234.1,,,,,,,,,,,,,,
2018,02,23,02,01,00,245.2,,,,,,,,,,,,,,
2018,02,23,02,02,00,230.5,,,,,,,,,,,,,,
2018,02,23,02,03,00,198.7,,,,,,,,,,,,,,
2018,02,23,02,04,00,220.3,,,,,,,,,,,,,,
2018,02,23,02,05,00,241.5,,,,,,,,,,,,,,
2018,02,23,02,06,00,241.2,,,,,,,,,,,,,,
2018,02,23,02,07,00,211.3,,,,,,,,,,,,,,
2018,02,23,02,08,00,208.7,,,,,,,,,,,,,,
2018,02,23,02,09,00,209.5,,,,,,,,,,,,,,
2018,02,23,02,10,00,202.6,,,,,,,,,,,,,,
2018,02,23,02,11,00,187.1,,,,,,,,,,,,,,
2018,02,23,02,12,00,171.1,,,,,,,,,,,,,,
2018,02,23,02,13,00,169.0,,,,,,,,,,,,,,
2018,02,23,02,14,00,188.9,,,,,,,,,,,,,,
2018,02,23,02,15,00,169.0,,,,,,,,,,,,,,
2018,02,23,02,16,00,167.7,,,,,,,,,,,,,,
2018,02,23,02,17,00,162.7,,,,,,,,,,,,,,
2018,02,23,02,18,00,167.7,,,,,,,,,,,,,,
2018,02,23,02,19,00,170.5,,,,,,,,,,,,,,
2018,02,23,02,20,00,156.3,,,,,,,,,,,,,,
2018,02,23,02,21,00,160.5,,,,,,,,,,,,,,
2018,02,23,02,22,00,163.7,,,,,,,,,,,,,,
2018,02,23,02,23,00,165.8,,,,,,,,,,,,,,
2018,02,23,02,24,00,174.1,,,,,,,,,,,,,,
2018,02,23,02,25,00,166.9,,,,,,,,,,,,,,
2018,02,23,02,26,00,169.8,,,,,,,,,,,,,,
2018,02,23,02,27,00,165.9,,,,,,,,,,,,,,
2018,02,23,02,28,00,167.9,,,,,,,,,,,,,,
2018,02,23,02,29,00,165.4,,,,,,,,,,,,,,
2018,02,23,02,30,00,163.7,,,,,,,,,,,,,,
2018,02,23,02,31,00,164.8,,,,,,,,,,,,,,
2018,02,23,02,32,00,164.9,,,,,,,,,,,,,,
2018,02,23,02,33,00,164.1,,,,,,,,,,,,,,
2018,02,23,02,34,00,164.1,,,,,,,,,,,,,,
2018,02,23,02,35,00,165.0,,,,,,,,,,,,,,
2018,02,23,02,36,00,164.7,,,,,,,,,,,,,,
2018,02,23,02,37,00,162.6,,,,,,,,,,,,,,
2018,02,23,02,38,00,159.0,,,,,,,,,,,,,,
2018,02,23,02,39,00,161.2,,,,,,,,,,,,,,
2018,02,23,02,40,00,163.0,,,,,,,,,,,,,,
2018,02,23,02,41,00,158.7,,,,,,,,,,,,,,
2018,02,23,02,42,00,155.6,,,,,,,,,,,,,,
2018,02,23,02,43,00,151.2,,,,,,,,,,,,,,
2018,02,23,02,44,00,148.7,,,,,,,,,,,,,,
2018,02,23,02,45,00,148.4,,,,,,,,,,,,,,
2018,02,23,02,46,00,150.2,,,,,,,,,,,,,,
2018,02,23,02,47,00,150.2,,,,,,,,,,,,,,
2018,02,23,02,48,00,147.6,,,,,,,,,,,,,,
2018,02,23,02,49,00,149.6,,,,,,,,,,,,,,
2018,02,23,02,50,00,144.0,,,,,,,,,,,,,,
2018,02,23,02,51,00,154.4,,,,,,,,,,,,,,
2018,02,23,02,52,00,163.4,,,,,,,,,,,,,,
2018,02,23,02,53,00,176.2,,,,,,,,,,,,,,
2018,02,23,02,54,00,201.9,,,,,,,,,,,,,,
2018,02,23,02,55,00,239.3,,,,,,,,,,,,,,
2018,02,23,02,56,00,278.9,,,,,,,,,,,,,,
2018,02,23,02,57,00,250.7,,,,,,,,,,,,,,
2018,02,23,02,58,00,229.1,,,,,,,,,,,,,,
2018,02,23,02,59,00,230.7,,,,,,,,,,,,,,
2018,02,23,03,00,00,230.2,,,,,,,,,,,,,,
2018,02,23,03,01,00,233.2,,,,,,,,,,,,,,
2018,02,23,03,02,00,248.0,,,,,,,,,,,,,,
2018,02,23,03,03,00,234.8,,,,,,,,,,,,,,
2018,02,23,03,04,00,214.8,,,,,,,,,,,,,,
2018,02,23,03,05,00,206.4,,,,,,,,,,,,,,
2018,02,23,03,06,00,209.3,,,,,,,,,,,,,,
2018,02,23,03,07,00,210.1,,,,,,,,,,,,,,
2018,02,23,03,08,00,198.4,,,,,,,,,,,,,,
2018,02,23,03,09,00,188.9,,,,,,,,,,,,,,
2018,02,23,03,10,00,187.0,,,,,,,,,,,,,,
2018,02,23,03,11,00,194.0,,,,,,,,,,,,,,
2018,02,23,03,12,00,198.5,,,,,,,,,,,,,,
2018,02,23,03,13,00,188.8,,,,,,,,,,,,,,
2018,02,23,03,14,00,200.8,,,,,,,,,,,,,,
2018,02,23,03,15,00,271.9,,,,,,,,,,,,,,
2018,02,23,03,16,00,272.4,,,,,,,,,,,,,,
2018,02,23,03,17,00,265.0,,,,,,,,,,,,,,
2018,02,23,03,18,00,238.6,,,,,,,,,,,,,,
2018,02,23,03,19,00,202.8,,,,,,,,,,,,,,
2018,02,23,03,20,00,193.5,,,,,,,,,,,,,,
2018,02,23,03,21,00,186.6,,,,,,,,,,,,,,
2018,02,23,03,22,00,199.0,,,,,,,,,,,,,,
2018,02,23,03,23,00,219.8,,,,,,,,,,,,,,
2018,02,23,03,24,00,238.9,,,,,,,,,,,,,,
2018,02,23,03,25,00,209.4,,,,,,,,,,,,,,
2018,02,23,03,26,00,200.1,,,,,,,,,,,,,,
2018,02,23,03,27,00,197.5,,,,,,,,,,,,,,
2018,02,23,03,28,00,189.3,,,,,,,,,,,,,,
2018,02,23,03,29,00,192.8,,,,,,,,,,,,,,
2018,02,23,03,30,00,171.0,,,,,,,,,,,,,,
2018,02,23,03,31,00,172.5,,,,,,,,,,,,,,
2018,02,23,03,32,00,181.4,,,,,,,,,,,,,,
2018,02,23,03,33,00,181.7,,,,,,,,,,,,,,
2018,02,23,03,34,00,187.3,,,,,,,,,,,,,,
2018,02,23,03,35,00,191.5,,,,,,,,,,,,,,
2018,02,23,03,36,00,176.2,,,,,,,,,,,,,,
2018,02,23,03,37,00,169.0,,,,,,,,,,,,,,
2018,02,23,03,38,00,156.7,,,,,,,,,,,,,,
2018,02,23,03,39,00,152.2,,,,,,,,,,,,,,
2018,02,23,03,40,00,152.9,,,,,,,,,,,,,,
2018,02,23,03,41,00,139.8,,,,,,,,,,,,,,
2018,02,23,03,42,00,124.6,,,,,,,,,,,,,,
2018,02,23,03,43,00,122.3,,,,,,,,,,,,,,
2018,02,23,03,44,00,122.2,,,,,,,,,,,,,,
2018,02,23,03,45,00,120.7,,,,,,,,,,,,,,
2018,02,23,03,46,00,122.0,,,,,,,,,,,,,,
2018,02,23,03,47,00,124.9,,,,,,,,,,,,,,
2018,02,23,03,48,00,127.9,,,,,,,,,,,,,,
2018,02,23,03,49,00,146.9,,,,,,,,,,,,,,
2018,02,23,03,50,00,177.5,,,,,,,,,,,,,,
2018,02,23,03,51,00,189.2,,,,,,,,,,,,,,
2018,02,23,03,52,00,179.7,,,,,,,,,,,,,,
2018,02,23,03,53,00,175.1,,,,,,,,,,,,,,
2018,02,23,03,54,00,171.5,,,,,,,,,,,,,,
2018,02,23,03,55,00,152.4,,,,,,,,,,,,,,
2018,02,23,03,56,00,145.8,,,,,,,,,,,,,,
2018,02,23,03,57,00,133.0,,,,,,,,,,,,,,
2018,02,23,03,58,00,130.2,,,,,,,,,,,,,,
2018,02,23,03,59,00,124.9,,,,,,,,,,,,,,
2018,02,23,04,00,00,121.5,,,,,,,,,,,,,,
2018,02,23,04,01,00,117.7,,,,,,,,,,,,,,
2018,02,23,04,02,00,122.9,,,,,,,,,,,,,,
2018,02,23,04,03,00,124.0,,,,,,,,,,,,,,
2018,02,23,04,04,00,122.7,,,,,,,,,,,,,,
2018,02,23,04,05,00,127.6,,,,,,,,,,,,,,
2018,02,23,04,06,00,152.6,,,,,,,,,,,,,,
2018,02,23,04,07,00,208.6,,,,,,,,,,,,,,
2018,02,23,04,08,00,205.5,,,,,,,,,,,,,,
2018,02,23,04,09,00,184.2,,,,,,,,,,,,,,
2018,02,23,04,10,00,174.5,,,,,,,,,,,,,,
2018,02,23,04,11,00,166.9,,,,,,,,,,,,,,
2018,02,23,04,12,00,157.6,,,,,,,,,,,,,,
2018,02,23,04,13,00,141.7,,,,,,,,,,,,,,
2018,02,23,04,14,00,125.9,,,,,,,,,,,,,,
2018,02,23,04,15,00,121.5,,,,,,,,,,,,,,
2018,02,23,04,16,00,121.2,,,,,,,,,,,,,,
2018,02,23,04,17,00,120.9,,,,,,,,,,,,,,
2018,02,23,04,18,00,118.2,,,,,,,,,,,,,,
2018,02,23,04,19,00,117.4,,,,,,,,,,,,,,
2018,02,23,04,20,00,115.2,,,,,,,,,,,,,,
2018,02,23,04,21,00,126.6,,,,,,,,,,,,,,
2018,02,23,04,22,00,136.8,,,,,,,,,,,,,,
2018,02,23,04,23,00,125.4,,,,,,,,,,,,,,
2018,02,23,04,24,00,122.8,,,,,,,,,,,,,,
2018,02,23,04,25,00,123.2,,,,,,,,,,,,,,
2018,02,23,04,26,00,122.2,,,,,,,,,,,,,,
2018,02,23,04,27,00,122.7,,,,,,,,,,,,,,
2018,02,23,04,28,00,124.4,,,,,,,,,,,,,,
2018,02,23,04,29,00,125.9,,,,,,,,,,,,,,
2018,02,23,04,30,00,126.9,,,,,,,,,,,,,,
2018,02,23,04,31,00,123.1,,,,,,,,,,,,,,
2018,02,23,04,32,00,138.9,,,,,,,,,,,,,,
2018,02,23,04,33,00,131.2,,,,,,,,,,,,,,
2018,02,23,04,34,00,122.8,,,,,,,,,,,,,,
2018,02,23,04,35,00,121.9,,,,,,,,,,,,,,
2018,02,23,04,36,00,128.3,,,,,,,,,,,,,,
2018,02,23,04,37,00,133.0,,,,,,,,,,,,,,
2018,02,23,04,38,00,135.0,,,,,,,,,,,,,,
2018,02,23,04,39,00,123.9,,,,,,,,,,,,,,
2018,02,23,04,40,00,123.8,,,,,,,,,,,,,,
2018,02,23,04,41,00,130.3,,,,,,,,,,,,,,
2018,02,23,04,42,00,125.5,,,,,,,,,,,,,,
2018,02,23,04,43,00,120.5,,,,,,,,,,,,,,
2018,02,23,04,44,00,121.4,,,,,,,,,,,,,,
2018,02,23,04,45,00,111.9,,,,,,,,,,,,,,
2018,02,23,04,46,00,111.4,,,,,,,,,,,,,,
2018,02,23,04,47,00,116.4,,,,,,,,,,,,,,
2018,02,23,04,48,00,113.7,,,,,,,,,,,,,,
2018,02,23,04,49,00,113.4,,,,,,,,,,,,,,
2018,02,23,04,50,00,119.2,,,,,,,,,,,,,,
2018,02,23,04,51,00,113.4,,,,,,,,,,,,,,
2018,02,23,04,52,00,112.3,,,,,,,,,,,,,,
2018,02,23,04,53,00,109.1,,,,,,,,,,,,,,
2018,02,23,04,54,00,120.9,,,,,,,,,,,,,,
2018,02,23,04,55,00,124.1,,,,,,,,,,,,,,
2018,02,23,04,56,00,125.8,,,,,,,,,,,,,,
2018,02,23,04,57,00,123.4,,,,,,,,,,,,,,
2018,02,23,04,58,00,121.3,,,,,,,,,,,,,,
2018,02,23,04,59,00,138.2,,,,,,,,,,,,,,
2018,02,23,05,00,00,147.1,,,,,,,,,,,,,,
2018,02,23,05,01,00,141.6,,,,,,,,,,,,,,
2018,02,23,05,02,00,147.3,,,,,,,,,,,,,,
2018,02,23,05,03,00,160.1,,,,,,,,,,,,,,
2018,02,23,05,04,00,174.1,,,,,,,,,,,,,,
2018,02,23,05,05,00,176.5,,,,,,,,,,,,,,
2018,02,23,05,06,00,182.1,,,,,,,,,,,,,,
2018,02,23,05,07,00,187.1,,,,,,,,,,,,,,
2018,02,23,05,08,00,184.7,,,,,,,,,,,,,,
2018,02,23,05,09,00,173.2,,,,,,,,,,,,,,
2018,02,23,05,10,00,144.4,,,,,,,,,,,,,,
2018,02,23,05,11,00,128.7,,,,,,,,,,,,,,
2018,02,23,05,12,00,129.0,,,,,,,,,,,,,,
2018,02,23,05,13,00,124.6,,,,,,,,,,,,,,
2018,02,23,05,14,00,120.0,,,,,,,,,,,,,,
2018,02,23,05,15,00,118.5,,,,,,,,,,,,,,
2018,02,23,05,16,00,113.8,,,,,,,,,,,,,,
2018,02,23,05,17,00,119.2,,,,,,,,,,,,,,
2018,02,23,05,18,00,120.3,,,,,,,,,,,,,,
2018,02,23,05,19,00,118.8,,,,,,,,,,,,,,
2018,02,23,05,20,00,115.0,,,,,,,,,,,,,,
2018,02,23,05,21,00,113.9,,,,,,,,,,,,,,
2018,02,23,05,22,00,114.1,,,,,,,,,,,,,,
2018,02,23,05,23,00,115.0,,,,,,,,,,,,,,
2018,02,23,05,24,00,115.5,,,,,,,,,,,,,,
2018,02,23,05,25,00,120.2,,,,,,,,,,,,,,
2018,02,23,05,26,00,120.7,,,,,,,,,,,,,,
2018,02,23,05,27,00,123.5,,,,,,,,,,,,,,
2018,02,23,05,28,00,129.3,,,,,,,,,,,,,,
2018,02,23,05,29,00,155.7,,,,,,,,,,,,,,
2018,02,23,05,30,00,192.6,,,,,,,,,,,,,,
2018,02,23,05,31,00,193.8,,,,,,,,,,,,,,
2018,02,23,05,32,00,181.3,,,,,,,,,,,,,,
2018,02,23,05,33,00,168.2,,,,,,,,,,,,,,
2018,02,23,05,34,00,167.1,,,,,,,,,,,,,,
2018,02,23,05,35,00,172.5,,,,,,,,,,,,,,
2018,02,23,05,36,00,178.1,,,,,,,,,,,,,,
2018,02,23,05,37,00,177.5,,,,,,,,,,,,,,
2018,02,23,05,38,00,206.2,,,,,,,,,,,,,,
2018,02,23,05,39,00,235.1,,,,,,,,,,,,,,
2018,02,23,05,40,00,245.6,,,,,,,,,,,,,,
2018,02,23,05,41,00,214.8,,,,,,,,,,,,,,
2018,02,23,05,42,00,189.1,,,,,,,,,,,,,,
2018,02,23,05,43,00,162.3,,,,,,,,,,,,,,
2018,02,23,05,44,00,125.0,,,,,,,,,,,,,,
2018,02,23,05,45,00,124.4,,,,,,,,,,,,,,
2018,02,23,05,46,00,135.6,,,,,,,,,,,,,,
2018,02,23,05,47,00,132.0,,,,,,,,,,,,,,
2018,02,23,05,48,00,127.4,,,,,,,,,,,,,,
2018,02,23,05,49,00,122.1,,,,,,,,,,,,,,
2018,02,23,05,50,00,123.7,,,,,,,,,,,,,,
2018,02,23,05,51,00,131.4,,,,,,,,,,,,,,
2018,02,23,05,52,00,137.9,,,,,,,,,,,,,,
2018,02,23,05,53,00,131.1,,,,,,,,,,,,,,
2018,02,23,05,54,00,123.1,,,,,,,,,,,,,,
2018,02,23,05,55,00,120.4,,,,,,,,,,,,,,
2018,02,23,05,56,00,117.1,,,,,,,,,,,,,,
2018,02,23,05,57,00,114.5,,,,,,,,,,,,,,
2018,02,23,05,58,00,115.1,,,,,,,,,,,,,,
2018,02,23,05,59,00,112.8,,,,,,,,,,,,,,
2018,02,23,06,00,00,114.0,,,,,,,,,,,,,,
2018,02,23,06,01,00,112.0,,,,,,,,,,,,,,
2018,02,23,06,02,00,112.2,,,,,,,,,,,,,,
2018,02,23,06,03,00,116.7,,,,,,,,,,,,,,
2018,02,23,06,04,00,113.8,,,,,,,,,,,,,,
2018,02,23,06,05,00,110.8,,,,,,,,,,,,,,
2018,02,23,06,06,00,124.8,,,,,,,,,,,,,,
2018,02,23,06,07,00,164.3,,,,,,,,,,,,,,
2018,02,23,06,08,00,186.7,,,,,,,,,,,,,,
2018,02,23,06,09,00,200.0,,,,,,,,,,,,,,
2018,02,23,06,10,00,208.3,,,,,,,,,,,,,,
2018,02,23,06,11,00,180.3,,,,,,,,,,,,,,
2018,02,23,06,12,00,153.0,,,,,,,,,,,,,,
2018,02,23,06,13,00,127.4,,,,,,,,,,,,,,
2018,02,23,06,14,00,110.5,,,,,,,,,,,,,,
2018,02,23,06,15,00,109.3,,,,,,,,,,,,,,
2018,02,23,06,16,00,114.4,,,,,,,,,,,,,,
2018,02,23,06,17,00,115.5,,,,,,,,,,,,,,
2018,02,23,06,18,00,117.5,,,,,,,,,,,,,,
2018,02,23,06,19,00,121.3,,,,,,,,,,,,,,
2018,02,23,06,20,00,121.3,,,,,,,,,,,,,,
2018,02,23,06,21,00,123.0,,,,,,,,,,,,,,
2018,02,23,06,22,00,123.2,,,,,,,,,,,,,,
2018,02,23,06,23,00,120.3,,,,,,,,,,,,,,
2018,02,23,06,24,00,116.4,,,,,,,,,,,,,,
2018,02,23,06,25,00,115.8,,,,,,,,,,,,,,
2018,02,23,06,26,00,118.0,,,,,,,,,,,,,,
2018,02,23,06,27,00,122.1,,,,,,,,,,,,,,
2018,02,23,06,28,00,,,,,,,,,,,,,,,
2018,02,23,06,29,00,,,,,,,,,,,,,,,
2018,02,23,06,30,00,,,,,,,,,,,,,,,
2018,02,23,06,31,00,143.2,,,,,,,,,,,,,,
2018,02,23,06,32,00,130.8,,,,,,,,,,,,,,
2018,02,23,06,33,00,129.6,,,,,,,,,,,,,,
2018,02,23,06,34,00,124.1,,,,,,,,,,,,,,
2018,02,23,06,35,00,125.7,,,,,,,,,,,,,,
2018,02,23,06,36,00,125.9,,,,,,,,,,,,,,
2018,02,23,06,37,00,131.1,,,,,,,,,,,,,,
2018,02,23,06,38,00,146.3,,,,,,,,,,,,,,
2018,02,23,06,39,00,129.7,,,,,,,,,,,,,,
2018,02,23,06,40,00,126.1,,,,,,,,,,,,,,
2018,02,23,06,41,00,140.1,,,,,,,,,,,,,,
2018,02,23,06,42,00,137.9,,,,,,,,,,,,,,
2018,02,23,06,43,00,129.2,,,,,,,,,,,,,,
2018,02,23,06,44,00,128.0,,,,,,,,,,,,,,
2018,02,23,06,45,00,130.5,,,,,,,,,,,,,,
2018,02,23,06,46,00,127.8,,,,,,,,,,,,,,
2018,02,23,06,47,00,125.5,,,,,,,,,,,,,,
2018,02,23,06,48,00,,,,,,,,,,,,,,,
2018,02,23,06,49,00,,,,,,,,,,,,,,,
2018,02,23,06,50,00,142.8,,,,,,,,,,,,,,
2018,02,23,06,51,00,156.6,,,,,,,,,,,,,,
2018,02,23,06,52,00,164.4,,,,,,,,,,,,,,
2018,02,23,06,53,00,166.7,,,,,,,,,,,,,,
2018,02,23,06,54,00,182.1,,,,,,,,,,,,,,
2018,02,23,06,55,00,171.1,,,,,,,,,,,,,,
2018,02,23,06,56,00,168.1,,,,,,,,,,,,,,
2018,02,23,06,57,00,161.1,,,,,,,,,,,,,,
2018,02,23,06,58,00,146.3,,,,,,,,,,,,,,
2018,02,23,06,59,00,142.4,,,,,,,,,,,,,,
2018,02,23,07,00,00,146.5,,,,,,,,,,,,,,
2018,02,23,07,01,00,145.9,,,,,,,,,,,,,,
2018,02,23,07,02,00,141.4,,,,,,,,,,,,,,
2018,02,23,07,03,00,157.2,,,,,,,,,,,,,,
2018,02,23,07,04,00,153.5,,,,,,,,,,,,,,
2018,02,23,07,05,00,149.8,,,,,,,,,,,,,,
2018,02,23,07,06,00,153.4,,,,,,,,,,,,,,
2018,02,23,07,07,00,145.5,,,,,,,,,,,,,,
2018,02,23,07,08,00,141.3,,,,,,,,,,,,,,
2018,02,23,07,09,00,141.0,,,,,,,,,,,,,,
2018,02,23,07,10,00,139.0,,,,,,,,,,,,,,
2018,02,23,07,11,00,132.7,,,,,,,,,,,,,,
2018,02,23,07,12,00,132.6,,,,,,,,,,,,,,
2018,02,23,07,13,00,126.9,,,,,,,,,,,,,,
2018,02,23,07,14,00,129.3,,,,,,,,,,,,,,
2018,02,23,07,15,00,150.8,,,,,,,,,,,,,,
2018,02,23,07,16,00,150.0,,,,,,,,,,,,,,
2018,02,23,07,17,00,146.2,,,,,,,,,,,,,,
2018,02,23,07,18,00,154.4,,,,,,,,,,,,,,
2018,02,23,07,19,00,166.4,,,,,,,,,,,,,,
2018,02,23,07,20,00,155.9,,,,,,,,,,,,,,
2018,02,23,07,21,00,160.1,,,,,,,,,,,,,,
2018,02,23,07,22,00,164.6,,,,,,,,,,,,,,
2018,02,23,07,23,00,145.9,,,,,,,,,,,,,,
2018,02,23,07,24,00,144.9,,,,,,,,,,,,,,
2018,02,23,07,25,00,131.7,,,,,,,,,,,,,,
2018,02,23,07,26,00,135.0,,,,,,,,,,,,,,
2018,02,23,07,27,00,142.9,,,,,,,,,,,,,,
2018,02,23,07,28,00,146.2,,,,,,,,,,,,,,
2018,02,23,07,29,00,150.1,,,,,,,,,,,,,,
2018,02,23,07,30,00,154.1,,,,,,,,,,,,,,
2018,02,23,07,31,00,150.5,,,,,,,,,,,,,,
2018,02,23,07,32,00,152.7,,,,,,,,,,,,,,
2018,02,23,07,33,00,146.1,,,,,,,,,,,,,,
2018,02,23,07,34,00,134.4,,,,,,,,,,,,,,
2018,02,23,07,35,00,133.8,,,,,,,,,,,,,,
2018,02,23,07,36,00,148.0,,,,,,,,,,,,,,
2018,02,23,07,37,00,133.7,,,,,,,,,,,,,,
2018,02,23,07,38,00,139.2,,,,,,,,,,,,,,
2018,02,23,07,39,00,131.0,,,,,,,,,,,,,,
2018,02,23,07,40,00,141.9,,,,,,,,,,,,,,
2018,02,23,07,41,00,137.4,,,,,,,,,,,,,,
2018,02,23,07,42,00,136.3,,,,,,,,,,,,,,
2018,02,23,07,43,00,146.0,,,,,,,,,,,,,,
2018,02,23,07,44,00,143.8,,,,,,,,,,,,,,
2018,02,23,07,45,00,156.5,,,,,,,,,,,,,,
2018,02,23,07,46,00,172.2,,,,,,,,,,,,,,
2018,02,23,07,47,00,175.9,,,,,,,,,,,,,,
2018,02,23,07,48,00,187.7,,,,,,,,,,,,,,
2018,02,23,07,49,00,159.1,,,,,,,,,,,,,,
2018,02,23,07,50,00,165.8,,,,,,,,,,,,,,
2018,02,23,07,51,00,171.5,,,,,,,,,,,,,,
2018,02,23,07,52,00,187.9,,,,,,,,,,,,,,
2018,02,23,07,53,00,205.3,,,,,,,,,,,,,,
2018,02,23,07,54,00,237.7,,,,,,,,,,,,,,
2018,02,23,07,55,00,240.6,,,,,,,,,,,,,,
2018,02,23,07,56,00,218.7,,,,,,,,,,,,,,
2018,02,23,07,57,00,234.2,,,,,,,,,,,,,,
2018,02,23,07,58,00,216.0,,,,,,,,,,,,,,
2018,02,23,07,59,00,225.6,,,,,,,,,,,,,,
2018,02,23,08,00,00,226.0,,,,,,,,,,,,,,
2018,02,23,08,01,00,212.2,,,,,,,,,,,,,,
2018,02,23,08,02,00,198.5,,,,,,,,,,,,,,
2018,02,23,08,03,00,189.5,,,,,,,,,,,,,,
2018,02,23,08,04,00,194.5,,,,,,,,,,,,,,
2018,02,23,08,05,00,163.6,,,,,,,,,,,,,,
2018,02,23,08,06,00,155.8,,,,,,,,,,,,,,
2018,02,23,08,07,00,134.2,,,,,,,,,,,,,,
2018,02,23,08,08,00,129.8,,,,,,,,,,,,,,
2018,02,23,08,09,00,134.0,,,,,,,,,,,,,,
2018,02,23,08,10,00,141.6,,,,,,,,,,,,,,
2018,02,23,08,11,00,141.4,,,,,,,,,,,,,,
2018,02,23,08,12,00,142.9,,,,,,,,,,,,,,
2018,02,23,08,13,00,132.1,,,,,,,,,,,,,,
2018,02,23,08,14,00,123.3,,,,,,,,,,,,,,
2018,02,23,08,15,00,122.2,,,,,,,,,,,,,,
2018,02,23,08,16,00,123.6,,,,,,,,,,,,,,
2018,02,23,08,17,00,129.2,,,,,,,,,,,,,,
2018,02,23,08,18,00,124.0,,,,,,,,,,,,,,
2018,02,23,08,19,00,136.7,,,,,,,,,,,,,,
2018,02,23,08,20,00,128.7,,,,,,,,,,,,,,
2018,02,23,08,21,00,134.9,,,,,,,,,,,,,,
2018,02,23,08,22,00,145.2,,,,,,,,,,,,,,
2018,02,23,08,23,00,152.3,,,,,,,,,,,,,,
2018,02,23,08,24,00,172.6,,,,,,,,,,,,,,
2018,02,23,08,25,00,144.8,,,,,,,,,,,,,,
2018,02,23,08,26,00,130.3,,,,,,,,,,,,,,
2018,02,23,08,27,00,133.5,,,,,,,,,,,,,,
2018,02,23,08,28,00,140.5,,,,,,,,,,,,,,
2018,02,23,08,29,00,136.4,,,,,,,,,,,,,,
2018,02,23,08,30,00,146.4,,,,,,,,,,,,,,
2018,02,23,08,31,00,157.5,,,,,,,,,,,,,,
2018,02,23,08,32,00,153.6,,,,,,,,,,,,,,
2018,02,23,08,33,00,161.5,,,,,,,,,,,,,,
2018,02,23,08,34,00,167.2,,,,,,,,,,,,,,
2018,02,23,08,35,00,170.8,,,,,,,,,,,,,,
2018,02,23,08,36,00,174.3,,,,,,,,,,,,,,
2018,02,23,08,37,00,177.3,,,,,,,,,,,,,,
2018,02,23,08,38,00,186.2,,,,,,,,,,,,,,
2018,02,23,08,39,00,192.8,,,,,,,,,,,,,,
2018,02,23,08,40,00,200.7,,,,,,,,,,,,,,
2018,02,23,08,41,00,192.7,,,,,,,,,,,,,,
2018,02,23,08,42,00,197.8,,,,,,,,,,,,,,
2018,02,23,08,43,00,197.3,,,,,,,,,,,,,,
2018,02,23,08,44,00,200.7,,,,,,,,,,,,,,
2018,02,23,08,45,00,175.0,,,,,,,,,,,,,,
2018,02,23,08,46,00,165.6,,,,,,,,,,,,,,
2018,02,23,08,47,00,166.5,,,,,,,,,,,,,,
2018,02,23,08,48,00,165.6,,,,,,,,,,,,,,
2018,02,23,08,49,00,166.2,,,,,,,,,,,,,,
2018,02,23,08,50,00,164.6,,,,,,,,,,,,,,
2018,02,23,08,51,00,161.8,,,,,,,,,,,,,,
2018,02,23,08,52,00,175.0,,,,,,,,,,,,,,
2018,02,23,08,53,00,203.4,,,,,,,,,,,,,,
2018,02,23,08,54,00,247.3,,,,,,,,,,,,,,
2018,02,23,08,55,00,233.1,,,,,,,,,,,,,,
2018,02,23,08,56,00,253.5,,,,,,,,,,,,,,
2018,02,23,08,57,00,269.3,,,,,,,,,,,,,,
2018,02,23,08,58,00,350.1,,,,,,,,,,,,,,
2018,02,23,08,59,00,319.8,,,,,,,,,,,,,,
2018,02,23,09,00,00,244.7,,,,,,,,,,,,,,
2018,02,23,09,01,00,200.3,,,,,,,,,,,,,,
2018,02,23,09,02,00,163.1,,,,,,,,,,,,,,
2018,02,23,09,03,00,160.7,,,,,,,,,,,,,,
2018,02,23,09,04,00,172.4,,,,,,,,,,,,,,
2018,02,23,09,05,00,194.6,,,,,,,,,,,,,,
2018,02,23,09,06,00,193.0,,,,,,,,,,,,,,
2018,02,23,09,07,00,196.1,,,,,,,,,,,,,,
2018,02,23,09,08,00,205.8,,,,,,,,,,,,,,
2018,02,23,09,09,00,220.7,,,,,,,,,,,,,,
2018,02,23,09,10,00,246.6,,,,,,,,,,,,,,
2018,02,23,09,11,00,280.0,,,,,,,,,,,,,,
2018,02,23,09,12,00,255.1,,,,,,,,,,,,,,
2018,02,23,09,13,00,221.8,,,,,,,,,,,,,,
2018,02,23,09,14,00,206.1,,,,,,,,,,,,,,
2018,02,23,09,15,00,199.5,,,,,,,,,,,,,,
2018,02,23,09,16,00,201.2,,,,,,,,,,,,,,
2018,02,23,09,17,00,224.1,,,,,,,,,,,,,,
2018,02,23,09,18,00,280.1,,,,,,,,,,,,,,
2018,02,23,09,19,00,272.3,,,,,,,,,,,,,,
2018,02,23,09,20,00,211.8,,,,,,,,,,,,,,
2018,02,23,09,21,00,187.8,,,,,,,,,,,,,,
2018,02,23,09,22,00,171.7,,,,,,,,,,,,,,
2018,02,23,09,23,00,163.2,,,,,,,,,,,,,,
2018,02,23,09,24,00,163.8,,,,,,,,,,,,,,
2018,02,23,09,25,00,161.4,,,,,,,,,,,,,,
2018,02,23,09,26,00,164.5,,,,,,,,,,,,,,
2018,02,23,09,27,00,184.7,,,,,,,,,,,,,,
2018,02,23,09,28,00,173.3,,,,,,,,,,,,,,
2018,02,23,09,29,00,166.0,,,,,,,,,,,,,,
2018,02,23,09,30,00,177.2,,,,,,,,,,,,,,
2018,02,23,09,31,00,205.0,,,,,,,,,,,,,,
2018,02,23,09,32,00,209.9,,,,,,,,,,,,,,
2018,02,23,09,33,00,221.0,,,,,,,,,,,,,,
2018,02,23,09,34,00,224.8,,,,,,,,,,,,,,
2018,02,23,09,35,00,229.6,,,,,,,,,,,,,,
2018,02,23,09,36,00,249.7,,,,,,,,,,,,,,
2018,02,23,09,37,00,295.1,,,,,,,,,,,,,,
2018,02,23,09,38,00,323.7,,,,,,,,,,,,,,
2018,02,23,09,39,00,299.7,,,,,,,,,,,,,,
2018,02,23,09,40,00,272.6,,,,,,,,,,,,,,
2018,02,23,09,41,00,252.4,,,,,,,,,,,,,,
2018,02,23,09,42,00,244.0,,,,,,,,,,,,,,
2018,02,23,09,43,00,218.7,,,,,,,,,,,,,,
2018,02,23,09,44,00,185.8,,,,,,,,,,,,,,